Date String (YYYY-MM-DD hh:mm:ss) UTC,Instrument flags,absolute air pressure of the measurement (hPa),sample flow rate (lpm),inlet stack bypass flow (lpm),air temperature of the measurement (°C),ambient temperature measured by the external sensor (°C),aerosol sample conditioner tube jacket temperature (°C),OPC LED temperature (°C),internal box temperature (°C),relative humidity of the measurement (%),span deviation,mass concentration of particles derived from Lorenz-Mie calculation of OPC scattering (μg/m³),mass concentration of particles derived from Lorenz-Mie calculation of OPC scattering (μg/m³),mass concentration of particles derived from Lorenz-Mie calculation of OPC scattering (μg/m³)
DateTimeUTC,F1_M11,P_M11,Q1_M11,Q2_M11,T1_M11,T2_M11,T3_M11,T4_M11,T5_M11,U1_M11,ZSPAN_M11,X0_M11,X2_M11,X1_M11
2023-07-03 19:00:00,SystemResetWarning,0831.3,5.00,000.00,028.4,026.2,000.0,036.8,030.0,19.8,0000.0,0008.68,0004.21,0003.70
2023-07-03 19:01:00,SystemResetWarning,0831.3,5.00,000.00,028.5,026.6,000.0,036.8,030.1,19.5,0000.0,0009.06,0004.21,0003.71
2023-07-03 19:02:00,SystemResetWarning,0831.3,5.01,000.00,028.5,026.9,000.0,036.9,030.2,20.0,0000.0,0009.14,0004.18,0003.70
2023-07-03 19:03:00,SystemResetWarning,0831.3,5.00,000.00,028.6,027.2,000.0,036.9,030.3,19.9,0000.0,0009.81,0004.16,0003.70
2023-07-03 19:04:00,SystemResetWarning,0831.3,5.00,000.00,028.6,027.2,000.0,036.9,030.4,19.3,0000.0,0010.15,0004.19,0003.71
2023-07-03 19:05:00,SystemResetWarning,0831.3,4.99,000.00,028.6,025.6,000.0,036.8,030.2,19.1,0000.0,0010.59,0004.20,0003.71
2023-07-03 19:06:00,SystemResetWarning,0831.3,5.02,000.00,028.5,024.6,000.0,036.7,030.0,19.0,0000.0,0010.77,0004.23,0003.72
2023-07-03 19:07:00,SystemResetWarning,0831.4,5.00,000.00,028.5,024.9,000.0,036.7,029.9,19.9,0000.0,0010.75,0004.25,0003.73
2023-07-03 19:08:00,SystemResetWarning,0831.3,4.99,000.00,028.4,025.3,000.0,036.7,029.8,18.2,0000.0,0010.44,0004.24,0003.73
2023-07-03 19:09:00,SystemResetWarning,0831.3,5.00,000.00,028.4,025.8,000.0,036.8,029.9,20.1,0000.0,0010.22,0004.22,0003.74
2023-07-03 19:10:00,SystemResetWarning,0831.3,5.01,000.00,028.4,026.2,000.0,036.8,030.0,20.0,0000.0,0010.14,0004.22,0003.74
2023-07-03 19:11:00,SystemResetWarning,0831.3,5.01,000.00,028.5,026.6,000.0,036.8,030.1,19.7,0000.0,0010.12,0004.20,0003.74
2023-07-03 19:12:00,SystemResetWarning,0831.3,5.00,000.00,028.5,026.9,000.0,036.8,030.2,19.6,0000.0,0010.29,0004.19,0003.74
2023-07-03 19:13:00,SystemResetWarning,0831.3,5.00,000.00,028.6,027.2,000.0,036.9,030.3,19.9,0000.0,0010.87,0004.21,0003.75
2023-07-03 19:14:00,SystemResetWarning,0831.3,4.98,000.00,028.6,026.6,000.0,036.8,030.2,19.3,0000.0,0010.71,0004.20,0003.76
2023-07-03 19:15:00,SystemResetWarning,0831.3,5.02,000.00,028.5,024.9,000.0,036.7,030.0,20.2,0000.0,0010.30,0004.20,0003.77
2023-07-03 19:16:00,SystemResetWarning,0831.3,5.02,000.00,028.5,024.6,000.0,036.6,029.9,19.3,0000.0,0010.05,0004.22,0003.78
2023-07-03 19:17:00,SystemResetWarning,0831.3,4.99,000.00,028.4,025.0,000.0,036.7,029.8,19.9,0000.0,0010.01,0004.21,0003.78
2023-07-03 19:18:00,SystemResetWarning,0831.3,5.00,000.00,028.4,025.4,000.0,036.7,029.8,18.7,0000.0,0010.32,0004.25,0003.79
2023-07-03 19:19:00,SystemResetWarning,0831.3,5.00,000.00,028.4,025.8,000.0,036.7,029.9,19.5,0000.0,0010.34,0004.26,0003.79
2023-07-03 19:20:00,SystemResetWarning,0831.3,5.01,000.00,028.4,026.3,000.0,036.8,030.0,18.8,0000.0,0010.07,0004.26,0003.79
2023-07-03 19:21:00,SystemResetWarning,0831.3,5.00,000.00,028.4,026.6,000.0,036.8,030.1,18.3,0000.0,0009.97,0004.28,0003.80
2023-07-03 19:22:00,SystemResetWarning,0831.3,4.99,000.00,028.5,027.0,000.0,036.8,030.2,18.4,0000.0,0010.21,0004.28,0003.81
2023-07-03 19:23:00,SystemResetWarning,0831.3,5.00,000.00,028.5,027.2,000.0,036.9,030.3,18.4,0000.0,0010.20,0004.33,0003.83
2023-07-03 19:24:00,SystemResetWarning,0831.3,5.00,000.00,028.6,026.8,000.0,036.8,030.3,19.2,0000.0,0009.85,0004.41,0003.86
2023-07-03 19:25:00,SystemResetWarning,0831.2,5.00,000.00,028.5,025.1,000.0,036.7,030.0,19.8,0000.0,0009.87,0004.44,0003.88
2023-07-03 19:26:00,SystemResetWarning,0831.2,5.01,000.00,028.4,024.6,000.0,036.6,029.9,18.5,0000.0,0010.37,0004.45,0003.89
2023-07-03 19:27:00,SystemResetWarning,0831.2,5.01,000.00,028.4,025.0,000.0,036.6,029.8,19.3,0000.0,0010.24,0004.45,0003.89
2023-07-03 19:28:00,SystemResetWarning,0831.2,4.99,000.00,028.4,025.3,000.0,036.7,029.8,20.0,0000.0,0010.14,0004.45,0003.91
2023-07-03 19:29:00,SystemResetWarning,0831.2,4.99,000.00,028.4,025.8,000.0,036.7,029.9,18.4,0000.0,0010.31,0004.41,0003.92
2023-07-03 19:30:00,SystemResetWarning,0831.2,5.01,000.00,028.4,026.2,000.0,036.8,030.0,19.1,0000.0,0010.29,0004.42,0003.94
2023-07-03 19:31:00,SystemResetWarning,0831.2,4.99,000.00,028.4,026.6,000.0,036.8,030.1,18.6,0000.0,0010.27,0004.44,0003.95
2023-07-03 19:32:00,SystemResetWarning,0831.2,5.00,000.00,028.5,026.9,000.0,036.8,030.2,18.4,0000.0,0010.18,0004.42,0003.95
2023-07-03 19:33:00,SystemResetWarning,0831.2,5.00,000.00,028.5,027.2,000.0,036.8,030.3,18.2,0000.0,0009.95,0004.43,0003.96
2023-07-03 19:34:00,SystemResetWarning,0831.2,4.99,000.00,028.6,027.0,000.0,036.8,030.3,19.5,0000.0,0009.76,0004.41,0003.96
2023-07-03 19:35:00,SystemResetWarning,0831.2,4.99,000.00,028.5,025.3,000.0,036.7,030.1,19.4,0000.0,0009.40,0004.37,0003.95
2023-07-03 19:36:00,SystemResetWarning,0831.2,5.02,000.00,028.5,024.6,000.0,036.6,030.0,17.9,0000.0,0009.06,0004.33,0003.93
2023-07-03 19:37:00,SystemResetWarning,0831.2,5.01,000.00,028.4,024.9,000.0,036.6,029.9,17.8,0000.0,0008.11,0004.31,0003.92
2023-07-03 19:38:00,SystemResetWarning,0831.2,4.99,000.00,028.4,025.3,000.0,036.7,029.8,19.1,0000.0,0008.37,0004.28,0003.92
2023-07-03 19:39:00,SystemResetWarning,0831.2,5.01,000.00,028.4,025.8,000.0,036.7,029.9,18.5,0000.0,0008.37,0004.29,0003.93
2023-07-03 19:40:00,SystemResetWarning,0831.2,5.00,000.00,028.4,026.2,000.0,036.8,030.0,18.5,0000.0,0007.99,0004.34,0003.93
2023-07-03 19:41:00,SystemResetWarning,0831.2,4.99,000.00,028.4,026.6,000.0,036.8,030.1,19.0,0000.0,0008.30,0004.33,0003.93
2023-07-03 19:42:00,SystemResetWarning,0831.2,5.00,000.00,028.5,026.9,000.0,036.8,030.2,19.5,0000.0,0008.64,0004.33,0003.93
2023-07-03 19:43:00,SystemResetWarning,0831.2,5.00,000.00,028.5,027.2,000.0,036.8,030.3,18.7,0000.0,0008.98,0004.35,0003.93
2023-07-03 19:44:00,SystemResetWarning,0831.2,5.01,000.00,028.6,027.2,000.0,036.8,030.3,18.5,0000.0,0008.95,0004.35,0003.94
2023-07-03 19:45:00,SystemResetWarning,0831.1,4.99,000.00,028.5,025.6,000.0,036.8,030.1,18.1,0000.0,0008.74,0004.33,0003.93
2023-07-03 19:46:00,SystemResetWarning,0831.1,5.00,000.00,028.5,024.6,000.0,036.6,029.9,20.2,0000.0,0008.69,0004.33,0003.93
2023-07-03 19:47:00,SystemResetWarning,0831.1,5.01,000.00,028.4,024.9,000.0,036.6,029.9,19.3,0000.0,0008.67,0004.33,0003.95
2023-07-03 19:48:00,SystemResetWarning,0831.1,4.99,000.00,028.4,025.2,000.0,036.7,029.8,20.0,0000.0,0008.76,0004.34,0003.95
2023-07-03 19:49:00,SystemResetWarning,0831.1,4.99,000.00,028.4,025.7,000.0,036.7,029.9,19.7,0000.0,0009.08,0004.34,0003.95
2023-07-03 19:50:00,SystemResetWarning,0831.1,5.00,000.00,028.4,026.1,000.0,036.7,030.0,20.2,0000.0,0010.03,0004.34,0003.93
2023-07-03 19:51:00,SystemResetWarning,0831.1,5.01,000.00,028.4,026.5,000.0,036.8,030.1,19.3,0000.0,0009.93,0004.33,0003.92
2023-07-03 19:52:00,SystemResetWarning,0831.1,5.00,000.00,028.5,026.9,000.0,036.8,030.2,19.0,0000.0,0009.52,0004.34,0003.91
2023-07-03 19:53:00,SystemResetWarning,0831.1,4.99,000.00,028.5,027.2,000.0,036.8,030.3,19.0,0000.0,0009.43,0004.32,0003.89
2023-07-03 19:54:00,SystemResetWarning,0831.1,5.00,000.00,028.6,027.3,000.0,036.8,030.3,19.5,0000.0,0009.81,0004.30,0003.88
2023-07-03 19:55:00,SystemResetWarning,0831.0,4.99,000.00,028.6,025.8,000.0,036.8,030.2,19.0,0000.0,0010.88,0004.33,0003.88
2023-07-03 19:56:00,SystemResetWarning,0831.0,5.01,000.00,028.5,024.6,000.0,036.7,030.0,19.7,0000.0,0010.88,0004.33,0003.89
2023-07-03 19:57:00,SystemResetWarning,0830.9,5.02,000.00,028.4,024.8,000.0,036.6,029.9,21.3,0000.0,0010.90,0004.36,0003.90
2023-07-03 19:58:00,SystemResetWarning,0831.0,5.00,000.00,028.4,025.2,000.0,036.7,029.8,20.9,0000.0,0011.04,0004.38,0003.90
2023-07-03 19:59:00,SystemResetWarning,0831.1,5.00,000.00,028.4,025.6,000.0,036.7,029.8,21.0,0000.0,0011.48,0004.37,0003.90
